Location: Gipe Farm
(40.9466°N, 95.5370°W)
Time: 08:47:31
(UTC-05:00)

Daily predictions for brighter satellites

Satellite Brightness Start Highest point End
(mag) Time Altitude Azimuth Time Altitude Azimuth Time Altitude Azimuth
BREEZE-M DEB (TANK) 4.4 19:18:55 10° WNW 19:22:04 49° SSW 19:31:08 10° SE
In-Cosmos 22 4.4 19:21:26 10° N 19:27:05 53° ENE 19:32:39 10° SSE
Meteor 1-22 Rocket 4.2 19:23:44 10° S 19:29:03 83° W 19:34:22 10° N
TELKOM 3 4.2 19:28:21 10° NW 19:31:22 35° NNE 19:33:35 10° E
Cosmos 1953 2.7 19:27:46 10° SSE 19:31:30 41° E 19:35:16 10° NNE
Meteor 1-24 Rocket 4.0 19:26:06 10° NNW 19:31:39 73° W 19:37:00 10° S
Cosmos 1674 4.2 19:29:08 10° NNE 19:31:49 18° ENE 19:34:28 10° ESE
CZ-4C R/B 4.3 19:27:44 10° W 19:32:18 26° NW 19:37:20 10° NNE
USA 215 4.2 19:28:47 10° ENE 19:34:01 25° SE 19:39:13 10° S
Helios 1B rocket 3.6 19:33:01 10° NE 19:36:13 22° E 19:39:25 10° SE
Cosmos 1743 Rocket 4.4 19:33:33 10° NNE 19:37:29 30° ENE 19:41:22 10° SE
Cosmos 1470 4.1 19:35:39 10° SE 19:38:23 19° E 19:41:08 10° NE
ATLAS 5 CENTAUR R/B 2.5 19:36:48 10° SW 19:41:32 60° NW 19:46:41 10° NNE
Cosmos 1544 3.5 19:42:20 10° SSE 19:45:51 40° E 19:49:22 10° NNE
SAR-Lupe-4 3.5 19:42:42 10° SSE 19:46:15 70° ENE 19:49:49 10° N
Resurs 01 Rocket 2.1 19:49:19 10° SE 19:53:28 41° ENE 19:57:38 10° N
Meteor 2-12 Rocket 4.4 19:47:45 10° S 19:53:50 65° E 19:59:56 10° NNE
COSMO-SKYMED 1 3.5 19:53:02 10° N 19:57:16 52° WNW 20:01:28 10° SSW
METEOR-M 4.2 19:52:25 10° SSE 19:57:38 58° ENE 20:02:53 10° N
SJ-6B 2.8 19:54:54 10° SSE 19:58:55 86° ENE 20:03:02 10° NNW
SL-8 R/B 3.8 19:54:50 10° WSW 19:59:38 79° NNW 20:04:09 11° ENE
Cosmos 1484 Rocket 4.2 19:57:57 10° S 20:01:37 42° W 20:05:23 10° NNW
ALOS 3.1 19:58:33 10° SE 20:02:35 30° ENE 20:06:39 10° N
Cosmos 1076 Rocket 4.3 19:58:27 10° NNW 20:02:42 55° W 20:06:57 10° S
FengYun 1-2 T 4.4 20:01:11 10° SE 20:06:26 48° ENE 20:11:41 10° N
Cosmos 2151 4.0 20:06:36 10° NNE 20:10:06 25° ENE 20:11:12 22° E
ASTEX 1 3.9 20:06:11 10° NNE 20:10:43 37° E 20:15:13 10° SSE
Meteor 1-29 3.3 20:07:51 10° NNE 20:11:12 41° E 20:14:30 10° S
Nadezhda 4 Rocket 3.9 20:05:40 10° N 20:11:56 72° E 20:18:06 10° SSE
Cosmos-2242 3.3 20:09:12 10° SSW 20:13:34 71° W 20:17:58 10° N
GP-B 4.1 20:10:34 10° NNE 20:14:18 25° E 20:15:21 23° ESE
Cosmos 1758 4.3 20:12:55 10° SSW 20:16:55 52° W 20:20:57 10° N
SL-16 R/B 4.4 20:12:47 10° WSW 20:17:29 26° NW 20:22:14 10° N
ISS -2.5 20:15:26 10° WSW 20:18:36 49° NNW 20:20:45 18° NE
FENGYUN 3A 3.9 20:13:40 10° SE 20:18:45 45° ENE 20:23:53 10° N
Cosmos 2221 4.5 20:21:56 14° NE 20:21:56 14° NE 20:22:45 10° NE
Cosmos 1092 Rocket 3.9 20:16:48 10° N 20:22:58 63° E 20:29:02 10° SSE
Abrixas 3.8 20:20:48 10° W 20:23:36 34° NNW 20:25:00 21° NNE
GPS 2-04 Rocket1 3.3 20:24:05 10° WSW 20:27:15 34° S 20:28:00 30° SSE
Meteor 1-28 Rocket 4.5 20:24:33 10° N 20:28:06 43° WNW 20:31:37 10° SW
CENTAUR R/B 2.4 20:25:39 10° SSW 20:31:39 81° ESE 20:38:28 10° NE
Cosmos 2026 Rocket 4.3 20:26:56 10° N 20:32:42 42° ENE 20:35:54 24° SE
CZ-2D R/B 3.6 20:32:42 41° E 20:33:18 44° ENE 20:37:02 10° N
Cosmos 2251 Rocket 3.8 20:28:37 10° S 20:33:29 41° ESE 20:38:24 10° NNE
Cosmos 839 Rocket 4.2 20:28:06 10° NNW 20:35:44 69° NE 20:39:42 25° SE
Cosmos 1328 3.9 20:33:03 10° N 20:36:56 49° E 20:37:21 46° ESE
Cosmos 1655 Rocket 4.3 20:31:33 10° N 20:37:24 41° ENE 20:39:53 29° ESE
Cosmos 1634 Rocket 3.9 20:33:16 10° S 20:39:25 65° E 20:45:33 10° NNE
ERBS 3.7 20:36:29 10° NNW 20:39:18 27° NNE 20:39:18 27° NNE
H-2A R/B 2.8 20:41:19 53° E 20:41:41 56° ENE 20:45:28 10° N
Cosmos 1331 Rocket 4.3 20:37:11 10° N 20:42:18 46° ENE 20:43:31 39° ESE
Cosmos 1943 Rocket 2.6 20:38:08 10° N 20:43:23 39° ENE 20:44:22 36° E
Cosmos 1500 Rocket 3.9 20:41:00 10° NNW 20:45:26 68° W 20:49:52 10° S
Helios 1A 3.6 20:42:29 10° S 20:46:38 58° W 20:50:48 10° NNW
Cosmos 1842 Rocket 3.9 20:42:42 10° SSW 20:46:59 63° W 20:51:20 10° N
AVUM R/B 4.0 20:46:11 10° SSW 20:48:16 41° SW 20:48:16 41° SW
Cosmos 2369 Rocket 2.3 20:49:26 10° NNW 20:55:06 76° WSW 20:58:45 23° SSE
Cosmos 2195 Rocket 4.4 20:48:55 10° N 20:55:16 73° E 20:59:47 20° SSE
Cosmos 1943 3.4 20:50:58 10° SSW 20:56:34 69° WNW 21:02:11 10° NNE
Cosmos 1733 4.2 20:57:43 10° SSW 21:01:27 47° W 21:05:12 10° N
Envisat 4.2 21:08:51 29° NNE 21:08:51 29° NNE 21:11:53 10° N
Cosmos 2263 4.2 21:03:38 10° NNW 21:09:26 80° WSW 21:11:26 42° SSE
Helios 1B rocket 4.4 21:07:57 10° N 21:11:33 29° WNW 21:15:08 10° SW
CZ-4B DEB 4.3 21:12:52 36° WNW 21:12:52 36° WNW 21:15:31 10° NNW
Gbstr 26 Del rocket 4.0 21:09:12 10° WSW 21:13:40 52° NNW 21:15:31 35° NNE
USA 215 3.2 21:13:01 23° NE 21:17:28 85° NW 21:24:00 10° SW
SL-24 R/B - RUBIN 2 4.4 21:11:47 10° NW 21:18:27 86° WSW 21:19:51 57° SSE
Resurs 01 Rocket 4.3 21:27:01 10° SW 21:30:06 18° W 21:33:11 10° NW
Cosmos 2058 4.2 21:29:16 10° NNW 21:32:01 37° NW 21:32:01 37° NW
ERS-1 Rocket 3.9 21:36:04 40° N 21:36:04 40° N 21:39:18 10° N
ALOS 4.2 21:37:03 15° SW 21:39:59 27° W 21:43:58 10° NW
Cosmos 2180 Rocket 4.4 21:45:06 79° W 21:45:09 80° W 21:51:20 10° N
BREEZE-M DEB (TANK) 3.5 21:39:07 10° WNW 21:46:53 60° NW 21:46:53 60° NW
BREEZE-M DEB (TANK) 4.5 21:57:03 10° SW 22:07:36 52° SSW 22:07:36 52° SSW
Cosmos 1943 Rocket 3.9 22:22:11 10° NW 22:25:56 27° W 22:25:56 27° W
